Tracking 20083 objects as of 9-Dec-2019
HD Live streaming from Space Station
objects crossing your sky now

FENGYUN 1C DEB

Track FENGYUN 1C DEB now!
10-day predictions


NORAD ID: 31971
Int'l Code: 1999-025CNY
Perigee: 784.5 km
Apogee: 807.6 km
Inclination: 102.3 °
Period: 100.6 minutes
Semi major axis: 7167 km
RCS: 0.0103 m2 (small)
Launch date: May 10, 1999
Source: People's Republic of China (PRC)
Launch site: Taiyaun Space Center, China (TSC)

Note: This is SATELLITE DEBRIS
aabbcc
Your satellite tracking list
Your tracking list is empty




NASA's NSSDC Master Catalog

Two Line Element Set (TLE):
1 31971U 99025CNY 19341.87424079  .00001257  00000-0  50789-3 0  9992
2 31971 102.2664  16.8804 0016100 181.7937 352.0189 14.30837280645778
Source of the keplerian elements: AFSPC